Location: T. Spence Memorial Observatory
(32.7356°N, 82.2098°W)
Time: 00:24:44
(UTC-04:00)

Daily predictions for brighter satellites

Satellite Brightness Start Highest point End
(mag) Time Altitude Azimuth Time Altitude Azimuth Time Altitude Azimuth
Terra 4.4 00:11:23 17° NW 00:11:23 17° NW 00:12:35 10° NNW
ATLAS 2AS CENTAUR R/B 3.6 00:26:52 53° NNW 00:26:52 53° NNW 00:33:40 10° NNE
SL-16 R/B 4.3 00:35:09 22° NNW 00:35:09 22° NNW 00:38:03 10° N
ATLAS 3B R/B 4.0 00:46:53 10° NNW 00:50:27 32° N 00:50:27 32° N
Cosmos 1943 Rocket 4.5 01:50:56 10° NNW 01:52:29 19° N 01:52:29 19° N
Resurs 1-4 Rocket 4.5 02:43:50 10° NE 02:45:44 16° ENE 02:45:44 16° ENE
SL-16 R/B 4.2 02:57:09 23° E 02:58:48 26° ENE 03:03:43 10° NNE
CZ-2D R/B 3.7 03:10:22 10° NE 03:13:40 28° ENE 03:13:40 28° ENE
USA 215 3.9 03:13:05 10° NNE 03:18:51 46° NNW 03:18:51 46° NNW
VEP-3 4.3 02:30:48 10° WSW 03:21:20 57° S 03:28:48 10° ESE
ADEOS Rocket 3.7 03:20:08 10° NNE 03:26:24 51° E 03:26:34 51° ESE
CENTAUR R/B 3.1 03:31:07 10° NNW 03:39:14 78° ENE 03:45:50 18° SE
GEOS 3 Rocket 4.3 03:41:04 10° NE 03:45:26 50° E 03:45:26 50° E
Cosmos 1833 Rocket 3.3 03:49:56 50° E 03:49:56 50° E 03:55:02 10° NNE
Cosmos 1727 Rocket 4.1 03:53:14 67° ESE 03:53:35 68° E 03:59:42 10° NNE
CZ-3 R/B 4.5 03:46:42 34° SSW 03:54:28 39° SSE 04:05:13 10° E
Cosmos 2082 Rocket 2.3 03:59:28 69° E 03:59:28 69° E 04:04:57 10° NNE
IRS-1D 3.9 04:09:21 10° N 04:13:52 54° NW 04:13:52 54° NW
ARIANE 5 R/B 2.8 04:10:21 10° N 04:14:51 57° NW 04:14:51 57° NW
Cosmos 1452 Rocket 3.4 04:14:40 10° NNW 04:19:56 88° ENE 04:20:11 82° SSE
Cosmos-2242 4.0 04:17:11 10° N 04:20:02 40° NNW 04:20:02 40° NNW
Resurs 1-4 Rocket 2.6 04:22:16 10° N 04:26:49 44° WNW 04:26:49 44° WNW
Okean O Rocket 3.9 04:24:22 10° NE 04:27:38 20° E 04:30:44 11° SE
Meteor 2-5 Rocket 3.6 04:27:39 66° SW 04:28:20 75° W 04:34:11 10° N
Cosmos 1707 4.4 04:30:56 25° NNW 04:30:56 25° NNW 04:32:47 10° N
ADEOS 4.1 04:24:46 10° N 04:29:17 42° WNW 04:29:17 42° WNW
Cosmos 1420 Rocket 4.2 04:26:26 10° NNW 04:31:45 71° ENE 04:35:58 16° SSE
Cosmos 1339 Rocket 4.4 04:31:17 56° WSW 04:31:55 59° W 04:37:57 10° N
Cosmos 1048 Rocket 3.8 04:32:16 71° W 04:32:29 72° WNW 04:37:36 10° NNE
Cosmos 1605 Rocket 4.0 04:27:24 10° NNW 04:33:21 54° W 04:33:47 53° WSW
Meteor 1-16 Rocket 4.1 04:29:29 10° N 04:34:50 77° E 04:37:30 30° SSE
SL-16 R/B 2.9 04:42:14 41° W 04:42:14 41° W 04:47:54 10° NNW
Cosmos 1842 Rocket 3.6 04:38:33 10° N 04:42:59 77° E 04:44:32 40° SSE
CZ-2D R/B 3.5 04:39:12 10° N 04:42:43 58° NW 04:42:43 58° NW
Intelsat 5-3 Rocket 4.1 04:46:03 28° S 04:46:03 28° S 04:48:24 10° SE
Cosmos 839 Rocket 4.4 04:40:31 10° NW 04:46:59 54° WSW 04:54:54 10° S
GPS 2-05 Rocket1 3.5 04:47:05 50° N 04:47:09 51° N 04:50:37 10° ENE
Yuri Rocket 3.7 04:47:55 44° S 04:48:28 46° SSE 04:54:14 10° E
CZ-2D R/B 3.3 04:50:44 10° NNW 04:54:54 24° WNW 04:55:00 24° WNW
Cosmos 1000 Rocket 4.4 04:51:41 28° S 04:55:09 83° W 05:01:24 10° N
Timation 2 Rocket 4.1 04:53:38 37° SW 04:56:18 64° WNW 05:02:43 10° NNE
Cosmos 1269 Rocket 4.5 04:56:58 38° W 04:57:51 41° WNW 05:02:50 10° N
Cosmos 158 Rocket 4.5 05:03:17 35° W 05:04:15 38° WNW 05:09:03 10° N
KM-V1 3.9 05:05:13 55° SSE 05:05:13 55° SSE 05:08:58 10° ESE
Cosmos 1697 Rocket 2.6 05:02:11 10° NNW 05:07:49 87° WSW 05:13:25 10° SSE
Cosmos 2173 Rocket 3.9 05:02:09 10° N 05:08:23 78° W 05:14:30 10° S
CZ-4B R/B 3.5 05:04:05 10° NNE 05:08:31 65° E 05:12:09 15° S
Cosmos 2100 Rocket 3.9 05:03:15 10° NNW 05:09:22 69° W 05:15:26 10° S
Meteor 1-24 Rocket 3.9 05:08:59 31° SW 05:11:15 50° W 05:16:46 10° N
ADEOS Rocket 4.4 05:06:39 10° NNW 05:11:33 24° WNW 05:13:32 21° W
UNKNOWN OBJECT B 4.3 05:09:52 10° NNW 05:12:49 22° WNW 05:12:49 22° WNW
PSLV R/B 3.9 05:12:38 38° S 05:13:15 43° SSE 05:16:28 10° ENE
IRS-1C Rocket 4.4 05:13:07 10° NNE 05:18:22 68° ESE 05:23:36 10° S
GENESIS II 4.3 05:14:58 10° NNW 05:18:56 77° ENE 05:22:47 10° SSE
Cosmos 2251 Rocket 3.5 05:16:53 17° SSW 05:20:58 87° ESE 05:26:20 10° NNE
MOZ.5/SAFIR/RUBIN 5/SL-8 4.5 05:21:47 28° SW 05:22:54 31° W 05:27:03 10° NW
Cosmos 1656 3.9 05:18:07 10° NW 05:23:09 40° WSW 05:28:12 10° S
ADEOS II 2.1 05:18:51 10° NNE 05:24:08 90° ESE 05:29:23 10° SSW
CZ-4B DEB 4.3 05:20:13 10° NNE 05:25:43 79° ESE 05:31:10 10° S
Cosmos 1674 2.8 05:23:29 11° S 05:27:02 75° E 05:30:51 10° N
Orbus 7S? 2.2 05:24:34 10° NW 05:27:17 82° SW 05:30:05 10° SE
Delta 2 Rocket 4.2 05:25:38 23° WSW 05:29:04 47° S 05:34:58 10° ESE
CENTAUR R/B 4.2 05:23:41 10° WNW 05:29:21 21° WSW 05:32:11 17° SW
USA 267 3.2 05:24:28 10° SE 05:30:58 71° SW 05:37:31 10° NW
Cosmos 1076 Rocket 3.4 05:28:04 14° SSW 05:31:42 73° W 05:35:56 10° N
Cosmos 494 Rocket 3.9 05:28:53 17° SSW 05:32:44 66° WNW 05:37:49 10° N
Cosmos 1833 Rocket 4.3 05:31:38 15° W 05:33:48 19° WNW 05:37:41 10° NNW
OAO 2 Rocket 4.4 05:30:58 17° SSW 05:34:29 35° SSE 05:39:17 10° E
Cosmos 2322 Rocket 4.3 05:31:39 10° N 05:36:40 31° ENE 05:41:40 10° SE
Okean 3 Rocket 4.2 05:38:56 18° SW 05:41:37 35° W 05:45:43 10° NNW
EO 1 Del DPAF 3.7 05:38:52 10° SSE 05:42:40 66° ENE 05:46:30 10° N
Cosmos 2082 Rocket 4.1 05:41:19 11° W 05:43:51 14° NW 05:46:52 10° NNW
Cosmos 1980 Rocket 2.1 05:38:13 10° NNW 05:43:53 74° WSW 05:49:28 10° SSE
ERS-2 4.5 05:41:18 10° NE 05:44:22 25° E 05:47:25 10° SSE
Cosmos 2123 Rocket 4.1 05:39:13 10° SSW 05:45:24 58° W 05:51:36 10° N
Cosmos 2016 Rocket 4.2 05:41:06 10° NNW 05:47:09 51° W 05:53:14 10° SSW
Okean-O 3.9 05:44:14 10° NNE 05:48:28 43° E 05:52:39 10° S
Cosmos 1766 Rocket 3.6 05:44:52 10° SSW 05:49:19 68° W 05:53:46 10° N
Cosmos 1356 Rocket 4.2 05:46:07 10° S 05:50:04 53° E 05:53:59 10° NNE
Delta 168 4.3 05:49:55 12° SSW 05:51:58 19° SSE 05:54:41 10° ESE
Delta 128 4.1 05:50:02 15° WSW 05:53:42 49° S 05:58:43 10° ESE
IRAS Rocket 4.3 05:48:49 10° NNE 05:54:29 88° WNW 06:00:06 10° SSW
EP 2 4.1 05:54:02 13° SSW 05:56:24 77° WNW 05:59:00 10° NNE
CZ-4B R/B 3.4 05:53:44 10° N 05:58:50 49° WNW 06:03:54 10° SW
ISS -1.4 06:00:18 10° S 06:02:41 19° SE 06:05:02 10° E
Okean O Rocket 2.7 06:00:13 10° NNW 06:03:56 27° WNW 06:07:39 10° SW
Cosmos 1447 Rocket 4.4 05:59:30 10° SSW 06:05:36 74° W 06:11:45 10° N
MTI 3.9 06:03:19 10° S 06:06:28 51° W 06:09:38 10° NNW
Abrixas 4.1 06:03:55 10° NNW 06:06:30 33° NE 06:09:05 10° ESE
Cosmos 1408 Rocket 4.1 06:03:15 10° SSW 06:07:28 41° W 06:11:43 10° N
Delta 2 Rocket 4.4 06:05:43 10° WSW 06:08:06 18° SSW 06:10:29 10° SSE
Cosmos 1726 3.0 06:04:38 10° N 06:08:21 54° E 06:12:01 10° SSE
SL-16 R/B 2.9 06:03:40 10° NNW 06:09:17 60° ENE 06:14:51 10° SSE
Cosmos 1340 Rocket 3.6 06:05:45 10° SW 06:09:20 32° WNW 06:12:54 10° NNW
Cosmos 1743 Rocket 3.6 06:10:24 10° S 06:14:49 79° W 06:19:19 10° N
Aurora 2 Rocket 3.7 06:13:21 10° SW 06:17:01 24° S 06:19:58 10° ESE
Cosmos 2221 3.9 06:15:38 10° NW 06:18:37 19° W 06:21:36 10° SW
Cosmos 1515 Rocket 4.2 06:16:31 10° N 06:20:58 64° E 06:25:22 10° SSE
